Theta_e
309 308 309 309 309 308 308 309 311 312 314 315 315 315 315 315 316 319 319 317 317 316 318 323 322 321 321 322 321 321 320 321 323 323 325 324 323 323 323 324 324 325 325 324 324
310 310 310 310 309 308 309 310 311 314 315 315 316 316 316 316 319 317 316 316 315 316 321 324 323 322 323 323 323 321 321 323 324 324 323 323 323 323 322 323 324 324 324 324 324
310 310 310 309 309 309 310 311 313 314 315 316 317 316 316 316 323 318 316 317 317 318 321 320 321 323 322 322 322 323 323 324 323 323 322 322 322 322 321 322 324 324 323 322 323
310 310 310 310 309 310 311 312 314 314 315 316 317 317 316 318 322 316 318 318 319 319 321 321 322 322 322 322 321 322 322 322 323 322 321 321 321 321 321 322 322 322 322 322 322
311 311 310 310 310 311 312 313 314 314 314 315 315 316 316 321 318 317 319 319 320 321 321 321 322 322 322 321 321 322 322 321 321 321 320 321 320 320 321 321 322 321 321 321 322
310 311 311 311 311 311 312 314 314 315 314 314 314 315 320 322 319 319 320 320 321 321 321 322 321 321 322 322 321 322 321 321 321 321 321 320 320 320 320 321 321 321 321 321 321
310 311 312 312 312 312 313 314 314 314 313 314 313 315 324 322 320 320 320 320 320 320 322 321 322 322 322 323 323 321 321 321 322 322 322 321 320 320 321 321 321 321 321 321 321
307 311 312 313 314 314 314 314 314 315 313 313 314 319 323 320 321 320 321 321 320 320 320 320 321 323 322 323 322 323 323 324 323 323 322 320 321 321 321 322 322 322 322 321 321
306 309 312 314 315 316 317 316 315 315 313 315 320 324 324 318 321 320 321 321 320 321 321 321 322 323 324 324 325 324 324 322 322 323 322 321 322 322 322 321 321 321 321 320 321
307 307 311 314 315 317 318 318 322 318 318 319 321 324 323 321 321 321 320 320 321 321 323 323 323 323 325 325 323 323 322 322 322 323 323 322 323 323 322 321 321 320 321 321 321
309 307 309 313 315 316 318 319 321 324 324 325 323 325 322 322 320 322 321 321 323 323 324 323 323 325 325 324 321 321 322 323 324 324 324 323 323 322 322 321 321 321 321 321 319
311 308 308 312 315 317 317 326 324 324 327 323 323 322 321 321 322 321 321 323 323 323 323 323 324 323 322 322 321 322 323 324 324 323 324 324 322 321 321 322 322 321 320 319 319
310 308 308 313 316 318 322 321 321 322 327 322 319 320 320 320 322 323 322 322 322 322 323 322 322 322 322 321 322 323 323 323 322 323 322 320 321 322 321 321 320 319 318 319 320
308 307 311 314 317 324 324 320 320 323 330 323 321 322 321 321 322 322 322 321 322 322 322 322 322 322 322 322 321 323 322 320 321 321 320 320 322 322 322 322 320 319 320 320 321
307 308 313 317 322 324 324 320 322 325 339 324 322 321 322 321 323 324 322 322 323 323 323 322 322 322 322 321 321 322 319 319 320 321 322 322 323 323 323 320 320 320 320 320 320
312 314 316 320 320 320 319 319 326 331 333 327 324 322 322 323 323 323 323 323 323 324 324 324 323 322 321 321 319 320 321 321 321 322 327 323 322 322 321 321 320 320 320 319 319
317 314 317 321 324 320 321 320 330 332 329 326 324 323 323 324 324 324 324 324 325 326 325 322 322 322 321 322 321 321 321 327 324 327 325 321 321 322 321 320 321 320 320 320 320
317 317 324 321 321 322 322 325 332 328 326 324 323 322 323 324 324 323 323 325 326 323 323 323 323 322 322 321 320 319 319 325 327 327 324 321 320 319 321 321 321 322 324 322 323
317 322 325 321 321 324 327 331 331 328 324 323 323 323 325 324 324 323 324 324 324 322 323 323 321 321 321 320 319 319 320 319 324 323 324 322 321 321 322 321 321 321 322 323 323
323 328 325 320 322 325 333 334 328 324 323 323 325 325 325 324 324 324 324 323 322 321 321 322 325 321 321 319 319 320 320 324 326 328 326 322 323 322 322 321 321 321 321 322 322
325 331 321 319 321 328 335 330 325 323 322 324 324 324 324 324 324 324 323 322 322 320 320 319 323 321 321 321 320 319 320 321 323 323 329 328 321 321 323 322 322 320 320 320 321
325 327 320 319 327 328 328 325 315 322 321 321 321 323 323 324 323 323 323 323 321 319 319 319 322 324 321 319 318 318 319 320 330 326 326 327 327 320 321 320 319 320 320 319 319
326 324 320 320 327 327 324 322 320 320 321 320 321 321 321 321 322 321 321 319 319 318 320 321 324 327 321 320 320 321 320 320 323 325 326 326 323 320 320 317 316 318 318 318 319
323 324 323 322 321 323 323 323 321 319 317 318 319 319 320 321 321 321 320 319 317 317 322 317 318 321 324 322 320 319 317 317 320 327 322 322 321 319 317 317 317 316 317 316 316
323 324 319 325 323 321 321 322 320 320 318 317 318 320 320 320 319 319 318 318 317 323 319 320 323 322 321 319 318 319 317 316 318 318 322 318 316 315 316 316 316 316 315 314 314
320 319 319 322 320 320 316 323 318 318 316 318 319 318 318 318 317 318 318 318 318 318 320 321 323 321 320 318 318 316 316 317 317 317 316 316 315 317 316 315 316 315 314 313 314
314 316 319 319 321 320 320 317 315 315 318 316 315 315 316 317 318 317 316 316 317 318 319 321 321 321 323 319 318 320 319 318 318 317 318 320 317 317 317 316 315 313 313 313 313
Wind_Speed
5 5 5 5 4 2 1 3 2 2 4 2 2 4 5 8 9 9 7 6 7 6 11 12 11 9 13 6 8 6 11 8 10 7 8 10 5 7 2 8 3 10 10 10 5
6 6 5 4 2 1 3 4 2 3 4 2 3 5 7 11 14 10 4 5 6 7 12 15 13 10 11 8 5 8 9 8 10 10 9 6 3 2 1 8 8 7 5 6 6
7 7 5 3 3 4 4 3 1 3 4 3 5 7 9 12 11 8 4 3 3 8 14 15 6 10 6 4 1 9 6 7 6 10 7 10 6 10 4 12 9 8 9 4 4
6 6 4 3 4 4 3 2 1 3 5 3 7 13 13 11 1 6 5 8 10 14 17 9 9 11 7 2 2 6 2 7 5 6 4 8 10 5 9 6 8 8 4 7 2
4 4 3 3 3 4 2 1 1 3 5 4 9 14 11 6 9 3 7 11 12 9 11 5 8 6 8 2 4 10 4 2 0 5 8 8 7 9 8 11 8 3 3 8 10
3 2 2 2 2 2 2 2 3 4 6 6 9 11 8 8 4 1 5 5 10 12 7 11 8 8 6 5 7 7 6 4 5 7 3 5 10 9 11 12 8 5 8 10 11
2 0 1 2 1 1 3 4 5 6 8 9 12 12 13 4 1 1 3 5 6 9 9 8 10 11 6 7 1 9 8 13 11 8 2 1 10 17 17 12 7 5 10 13 11
3 3 3 2 1 2 4 6 6 7 8 10 13 10 2 3 3 6 3 5 1 6 7 10 11 9 4 5 9 12 14 11 12 12 7 4 12 12 4 9 9 13 12 13 12
4 5 5 4 2 3 4 4 6 8 9 10 11 12 3 5 8 1 5 8 8 8 5 8 10 4 9 14 14 11 8 8 5 6 4 10 14 12 12 13 12 12 13 13 14
4 7 7 6 3 3 4 7 8 8 8 9 15 10 9 6 6 2 1 5 9 10 13 11 7 10 13 6 9 17 15 13 13 13 7 13 15 13 14 15 14 13 14 13 15
4 6 9 7 5 5 6 7 6 5 15 11 7 8 6 6 3 7 3 8 6 10 10 3 9 11 12 9 11 12 14 15 16 15 15 15 16 16 16 17 18 16 13 12 4
2 4 7 7 6 8 8 9 7 9 6 15 10 3 3 2 5 5 3 7 8 11 12 11 12 8 7 8 12 14 14 17 16 16 15 16 20 21 21 21 20 15 8 5 7
5 2 7 7 7 11 13 7 8 7 6 8 10 12 9 10 4 4 5 10 12 11 11 12 15 15 6 11 13 14 16 16 16 18 18 20 23 20 18 17 9 5 3 6 6
7 3 7 6 5 13 4 5 7 3 5 13 8 5 5 5 5 3 5 8 11 14 14 8 15 5 9 12 14 14 16 17 17 17 16 17 18 20 20 19 11 12 13 12 13
7 4 4 6 13 9 6 7 8 2 5 10 10 7 4 7 3 9 1 5 10 14 12 16 15 13 10 11 11 14 15 15 18 19 20 20 13 18 19 3 11 11 6 5 1
6 3 2 8 10 6 7 7 4 6 2 7 7 8 11 11 4 3 6 8 10 9 15 17 10 11 5 10 12 8 14 17 19 17 15 20 14 15 10 14 18 11 7 4 5
6 2 5 8 10 10 9 7 6 7 2 6 4 5 8 5 1 3 8 11 7 9 12 18 11 7 3 8 13 11 14 9 6 9 13 19 19 14 20 20 15 12 12 12 14
6 6 8 7 10 9 8 6 6 2 5 5 4 6 8 1 5 2 8 12 8 3 10 9 8 14 11 7 11 14 13 8 16 13 17 19 13 15 13 19 16 22 24 19 20
9 10 10 3 7 7 6 8 4 12 8 7 11 11 13 8 4 6 9 8 7 8 5 8 7 24 17 11 9 11 11 14 10 14 15 14 20 19 10 16 20 22 22 22 19
4 13 3 4 5 6 6 13 2 7 8 6 10 7 9 10 8 9 8 6 1 4 3 6 15 12 15 7 13 18 14 10 6 7 16 16 21 16 12 16 3 5 13 2 8
5 5 6 5 4 6 9 5 5 7 7 6 10 10 10 10 8 8 6 4 6 4 10 12 9 12 15 16 18 16 13 12 13 11 11 13 12 16 23 24 19 16 18 15 14
7 4 6 6 5 6 7 7 4 8 2 3 5 7 7 9 7 10 10 6 6 7 10 10 6 11 18 23 20 14 12 13 4 12 14 14 19 19 19 22 16 17 12 9 10
5 4 5 7 5 6 5 0 3 6 5 7 6 3 8 7 5 7 7 5 6 4 6 8 4 8 9 8 15 18 16 19 15 12 18 16 15 20 21 17 12 12 15 9 8
5 4 2 2 2 6 6 1 1 6 3 4 7 6 7 8 8 7 10 9 1 5 12 4 7 10 11 18 19 20 23 23 21 8 15 15 19 21 14 18 20 17 12 16 19
3 3 3 4 5 6 2 3 5 1 1 3 5 4 4 5 12 13 10 15 15 4 4 4 11 15 17 21 23 24 25 24 19 20 15 17 18 19 20 21 20 18 20 22 22
5 4 6 8 4 6 4 3 4 5 4 4 2 10 9 9 11 15 14 12 8 10 10 8 14 18 21 23 21 23 23 16 14 12 10 16 19 20 21 21 20 22 23 24 22
13 7 5 4 6 6 6 4 3 2 2 3 6 8 10 10 11 13 14 14 15 14 13 12 11 13 20 22 22 19 10 16 14 17 15 15 19 19 20 20 18 18 23 24 23
Wind_Direction
28 16 360 351 345 341 144 138 114 31 5 356 237 250 285 296 294 270 31 341 322 312 302 272 235 241 242 213 234 256 271 261 255 75 99 132 211 155 294 275 30 0 33 58 67
12 2 356 355 7 102 144 141 105 21 6 335 267 292 303 307 300 66 4 347 326 297 294 252 228 206 240 234 215 224 251 337 38 49 22 55 313 144 270 230 166 149 95 96 52
11 10 14 43 86 129 145 145 81 29 12 318 283 296 285 309 276 69 45 8 305 285 285 299 290 282 238 326 157 257 3 55 83 37 9 336 325 265 252 274 231 143 108 84 71
15 24 37 71 109 135 151 150 49 26 23 314 275 281 291 311 20 87 31 353 321 299 272 245 246 254 302 300 304 281 17 352 76 89 297 263 265 302 269 268 57 54 32 321 262
12 32 43 85 125 149 170 199 347 360 6 335 296 302 309 237 89 139 340 315 297 322 351 335 318 320 296 34 280 279 116 200 203 234 224 292 279 258 302 264 120 276 203 262 264
1 30 62 93 135 177 218 253 304 324 330 329 325 316 278 249 121 85 332 8 5 3 25 356 8 345 317 322 295 10 291 245 197 213 274 234 264 245 228 262 163 228 267 264 274
304 290 147 136 168 230 262 276 292 311 319 318 320 324 270 173 118 167 322 15 351 359 2 7 325 302 354 256 92 283 258 216 213 202 242 318 265 251 249 238 191 217 274 272 257
272 247 223 206 231 279 280 277 283 296 303 301 307 304 341 105 306 239 268 238 291 336 348 347 321 299 294 339 234 234 228 271 166 188 166 165 273 289 2 187 204 234 253 264 270
266 239 227 230 260 306 290 273 278 281 288 297 297 226 231 151 224 117 293 327 323 280 267 291 282 302 275 246 244 210 312 323 307 205 166 217 272 272 287 281 252 236 232 248 258
253 231 223 227 250 301 273 266 274 269 255 270 265 280 166 207 126 300 301 285 307 309 283 229 257 262 249 292 342 326 329 322 309 310 251 260 283 299 287 288 285 273 260 253 254
255 229 218 219 240 278 286 276 224 202 235 258 137 280 105 100 181 224 14 313 269 272 267 316 306 296 8 15 334 310 298 297 297 293 290 290 292 285 285 281 271 271 269 265 293
309 219 209 214 245 268 267 255 26 315 262 222 274 294 32 233 215 210 294 280 327 302 309 271 255 15 348 320 305 292 282 281 292 310 316 306 298 294 279 266 260 247 264 315 280
28 172 180 198 238 259 233 336 314 305 268 160 208 210 194 216 262 65 341 331 306 303 304 318 306 325 356 306 290 283 290 300 314 315 297 286 279 285 302 297 253 176 243 285 304
39 124 175 199 259 241 203 323 307 338 270 159 189 162 191 248 220 71 0 330 304 306 318 309 287 326 284 279 302 300 336 332 314 306 295 319 296 287 276 260 247 201 211 217 223
42 112 170 213 307 290 354 329 325 243 272 155 171 107 162 241 73 131 223 311 308 323 309 290 305 331 310 304 355 306 320 309 294 282 281 279 270 282 289 246 264 246 244 258 295
32 96 223 271 261 338 314 318 257 239 244 135 141 211 218 207 191 348 289 238 261 287 287 269 253 254 241 327 301 275 284 300 294 281 269 270 267 280 304 314 309 289 244 251 284
5 321 301 302 334 336 320 250 235 247 148 141 229 162 249 276 166 239 307 302 292 329 324 327 296 93 53 320 317 319 327 314 301 318 296 317 323 319 323 309 349 12 4 338 316
287 297 282 285 330 331 288 241 259 331 52 49 305 299 254 23 303 278 286 290 133 20 323 315 315 25 14 303 310 297 288 276 293 302 304 317 293 293 10 13 7 6 4 15 15
264 276 253 342 336 324 272 239 327 7 17 354 318 259 270 160 183 286 274 323 35 21 333 321 297 334 322 314 336 313 299 294 302 288 284 286 289 286 47 48 3 355 339 341 349
287 271 231 336 323 291 253 259 49 38 345 322 295 318 318 331 315 337 325 84 68 78 20 300 305 303 294 310 270 259 251 280 276 289 275 285 304 294 324 1 90 331 283 289 331
273 250 66 327 284 254 250 29 74 83 6 339 337 323 315 316 332 309 300 32 93 335 352 311 279 288 299 285 303 318 302 264 272 281 287 295 284 324 330 334 336 345 356 349 339
298 284 33 339 263 230 37 15 345 351 355 310 310 314 320 340 314 300 302 4 62 3 321 323 296 294 300 293 282 266 300 302 4 296 285 296 281 304 324 328 350 351 12 353 302
295 310 69 323 299 353 80 100 12 337 20 337 323 24 343 319 316 299 309 65 59 7 354 354 317 316 309 319 350 320 304 300 291 277 265 285 298 328 310 27 343 331 340 316 262
284 314 106 88 45 336 20 269 207 112 297 314 307 313 289 301 290 280 288 305 45 276 144 159 264 267 278 292 317 305 295 292 288 294 292 289 308 295 347 352 340 354 357 336 322
302 55 7 329 46 334 332 340 307 276 18 264 290 214 347 322 323 294 316 325 316 120 192 221 272 280 296 301 294 301 307 310 337 323 325 329 321 334 349 340 335 341 338 331 321
346 345 345 288 319 286 156 142 309 35 323 327 288 333 334 305 294 298 315 318 305 315 325 311 296 304 296 295 309 303 310 341 330 311 300 337 321 357 341 338 336 338 332 321 315
0 344 283 300 228 257 67 48 15 334 268 310 330 314 307 328 333 304 293 285 275 284 287 289 289 305 296 303 308 304 346 321 333 340 354 326 339 352 336 325 323 328 323 312 313